TimeCST,TemperatureF,Dew PointF,Humidity,Sea Level PressureIn,VisibilityMPH,Wind Direction,Wind SpeedMPH,Gust SpeedMPH,PrecipitationIn,Events,Conditions,WindDirDegrees,DateUTC
12:55 AM,22.3,16.5,79,30.04,10.0,SE,6.9,-,N/A,,Clear,130,2013-02-04 06:55:00
1:55 AM,23.4,17.6,79,30.01,10.0,SE,6.9,-,N/A,,Clear,140,2013-02-04 07:55:00
2:55 AM,26.2,20.1,78,29.98,10.0,SE,6.9,-,N/A,,Mostly Cloudy,140,2013-02-04 08:55:00
5:55 AM,31.5,25.2,78,29.95,10.0,SE,5.8,-,N/A,,Partly Cloudy,140,2013-02-04 11:55:00
6:55 AM,33.8,26.1,73,29.89,10.0,SSE,6.9,-,N/A,,Scattered Clouds,160,2013-02-04 12:55:00
7:55 AM,35.4,27.3,72,29.85,10.0,Variable,4.6,-,N/A,,Partly Cloudy,0,2013-02-04 13:55:00
8:55 AM,38.8,27.0,62,29.87,10.0,NNW,12.7,-,N/A,,Overcast,330,2013-02-04 14:55:00
9:55 AM,39.7,27.9,63,29.88,10.0,Calm,Calm,-,N/A,,Overcast,0,2013-02-04 15:55:00
10:55 AM,42.1,29.7,61,29.87,10.0,South,6.9,-,N/A,,Overcast,180,2013-02-04 16:55:00
11:55 AM,47.3,34.3,61,29.83,10.0,SSW,10.4,-,N/A,,Overcast,210,2013-02-04 17:55:00
12:55 PM,48.9,38.3,67,29.82,10.0,South,6.9,17.3,N/A,,Scattered Clouds,190,2013-02-04 18:55:00
1:55 PM,53.8,40.1,60,29.80,10.0,SW,10.4,-,N/A,,Clear,220,2013-02-04 19:55:00
2:55 PM,57.2,39.6,52,29.78,10.0,SE,6.9,-,N/A,,Clear,140,2013-02-04 20:55:00
3:55 PM,54.1,34.3,47,29.81,10.0,NNW,15.0,-,N/A,,Clear,330,2013-02-04 21:55:00
4:55 PM,51.1,32.5,49,29.82,10.0,North,11.5,-,N/A,,Clear,350,2013-02-04 22:55:00
5:55 PM,44.6,32.2,62,29.86,10.0,North,8.1,-,N/A,,Clear,350,2013-02-04 23:55:00
6:55 PM,40.8,30.6,67,29.91,10.0,NE,6.9,-,N/A,,Clear,40,2013-02-05 00:55:00
7:55 PM,37.4,28.8,71,29.93,10.0,North,9.2,-,N/A,,Clear,360,2013-02-05 01:55:00
8:55 PM,33.8,27.7,78,29.97,10.0,North,12.7,-,N/A,,Clear,360,2013-02-05 02:55:00
9:55 PM,31.5,27.1,84,30.00,10.0,NNW,11.5,-,N/A,,Mostly Cloudy,340,2013-02-05 03:55:00
10:55 PM,30.6,26.4,85,29.99,10.0,North,9.2,-,N/A,,Overcast,350,2013-02-05 04:55:00
11:55 PM,29.1,25.9,88,29.98,10.0,North,6.9,-,N/A,,Partly Cloudy,350,2013-02-05 05:55:00